Location: B?lite?ti
(46.2833°N, 22.7333°E)
Time: 04:43:47
(UTC+00:00)

Cosmos 405 - Pass Details

Date: 24 January 2021
Orbit: 448 x 462 km, 81.3° (Epoch: 26 February)

Event Time Altitude Azimuth Distance (km) Brightness Sun altitude
Rises 17:22:43 0° 348° (NNW) 2,506 6.8 -20.7°
Reaches altitude 10° 17:24:49 10° 347° (NNW) 1,624 5.8 -21.0°
Maximum altitude 17:28:22 82° 262° (W) 474 2.9 -21.6°
Enters shadow 17:28:28 80° 230° (SW) 475 2.9 -21.7°
